Flag for United Kingdom Weather past 2 weeks in Coventry, England, United Kingdom

Now
50 °F

Clear.


Feels Like: 48 °F
Forecast: 40 / 64 °F
Wind: 6 mph from Northwest

Location: Birmingham / Airport

Current Time: Sep 21, 2014 at 5:15:23 AM

Latest Report: Sep 21, 2014 at 4:20 AM


Visibility: 4 mi

Pressure: 30.21 "Hg

Humidity: 94%

Dew point: 48 °F

Location of CoventryLocation

Historic Weather in Coventry — Graph

°F

Coventry temperature yesterday

Maximum temperature yesterday: 63 °F (at 1:50 PM)
Minimum temperature yesterday: 57 °F (at 9:20 PM)
Average temperature yesterday: 60 °F

Past Weeks' High & Low Weather Summary

 TemperatureHumidityPressure
High73 °F (Sep 18, 3:20 PM)100% (Sep 9, 6:50 AM)30.36 "Hg (Sep 9, 6:50 AM)
Low48 °F (Sep 8, 4:20 AM)46% (Sep 7, 1:50 PM)29.80 "Hg (Sep 18, 3:20 PM)
Average60 °F79%30.08 "Hg
* Reported Sep 6 3:20 AM — Sep 21 3:50 AM, Coventry, Weather by CustomWeather, © 2014

Note: Actual official high and low records may vary slightly from our data, if they occured in-between our weather recording intervals... More about our weather records

Advertising

Coventry weather history for previous 24 hours

 ConditionsComfort  
Time TempWeatherWind HumidityBarometerVisibility
3:50 AM
Sep 21
52 °FClear.5 mph94%30.21 "Hg5 mi
3:20 AM52 °FClear.6 mph94%30.21 "Hg6 mi
2:50 AM54 °FCool.7 mph88%30.21 "Hg6 mi
2:20 AM55 °FCool.6 mph88%30.21 "HgN/A
1:50 AM55 °FCool.6 mph88%30.21 "Hg6 mi
1:20 AM55 °FPassing clouds.6 mph88%30.18 "Hg6 mi
12:50 AM55 °FPassing clouds.6 mph88%30.18 "Hg5 mi
12:20 AM55 °FPassing clouds.8 mph88%30.18 "Hg6 mi
11:20 PM
Sep 20
57 °FPassing clouds.9 mph88%30.15 "HgN/A
10:50 PM57 °FPassing clouds.8 mph88%30.15 "HgN/A
10:20 PM57 °FPassing clouds.6 mph88%30.15 "Hg6 mi
9:50 PM57 °FPassing clouds.7 mph88%30.15 "Hg6 mi
9:20 PM57 °FPassing clouds.9 mph88%30.12 "Hg6 mi
8:50 PM59 °FMostly cloudy.12 mph88%30.12 "HgN/A
8:20 PM59 °FMostly cloudy.10 mph88%30.12 "HgN/A
7:50 PM61 °FPartly sunny.9 mph83%30.12 "HgN/A
7:20 PM61 °FPartly sunny.12 mph77%30.09 "HgN/A
6:50 PM63 °FBroken clouds.8 mph77%30.09 "Hg4 mi
2:20 PM63 °FMostly cloudy.6 mph83%30.04 "Hg3 mi
1:50 PM63 °FMostly cloudy.6 mph83%30.04 "Hg3 mi
1:20 PM61 °FOvercast.6 mph88%30.04 "Hg3 mi
12:50 PM61 °FOvercast.7 mph88%30.04 "Hg2 mi
12:20 PM61 °FFog.6 mph94%30.04 "Hg2 mi
11:20 AM61 °FFog.7 mph94%30.04 "Hg1 mi
10:50 AM61 °FMostly cloudy.6 mph94%30.04 "Hg1 mi
10:20 AM59 °FFog.6 mph100%30.04 "Hg1 mi
9:50 AM59 °FFog.6 mph100%30.01 "Hg1 mi
9:20 AM59 °FFog.5 mph100%30.01 "Hg1 mi
8:50 AM59 °FFog.5 mph100%30.01 "Hg1 mi
8:20 AM59 °FFog.5 mph100%30.01 "Hg1 mi
7:50 AM61 °FFog.6 mph94%29.98 "Hg1 mi
7:20 AM61 °FFog.5 mph94%29.98 "Hg1 mi
6:50 AM61 °FFog.5 mph94%29.98 "Hg1 mi
6:20 AM61 °FFog.3 mph94%29.98 "Hg1 mi
5:50 AM61 °FFog.3 mph94%29.98 "Hg1 mi
5:20 AM61 °FFog.6 mph94%29.95 "Hg1 mi
Weather by CustomWeather, © 2014

See weather overviewHow to use our weather pages